FYT4906 LOWW-LIRF

Flight info

Callsign FYT4906
Flight time 1h 12m
Altitude 32000
Route RUPET DCT GRZ DCT GIRDA DCT BAXON DCT UNUMU N737 IPGOR/N0380F190 N737 ETPOK T369 RITEB
Aircraft A321/M-SDE1FGHIJ1RWXY/S

Departure

Time 2026-05-07 22:04
Airport Vienna International Airport (LOWW)

Arrival

Time 2026-05-07 23:17
Airport Rome–Fiumicino Leonardo da Vinci International Airport (LIRF)
Time Latitude Longitude Altitude Speed Heading
2026-05-07 21:36 48.11766 16.56124 595 ft 0 kts 26°
2026-05-07 21:54 48.11758 16.56118 595 ft 2 kts 26°
2026-05-07 21:55 48.11744 16.56108 595 ft 2 kts 26°
2026-05-07 21:55 48.11730 16.56099 595 ft 2 kts 26°
2026-05-07 21:55 48.11716 16.56089 595 ft 2 kts 26°
2026-05-07 21:55 48.11703 16.56079 595 ft 1 kts 26°
2026-05-07 21:56 48.11697 16.56075 595 ft 1 kts
2026-05-07 21:56 48.11691 16.56078 595 ft 0 kts 305°
2026-05-07 21:56 48.11688 16.56085 595 ft 1 kts 292°
2026-05-07 21:56 48.11687 16.56089 595 ft 0 kts 295°
2026-05-07 21:58 48.11688 16.56086 595 ft 1 kts 295°
2026-05-07 21:58 48.11694 16.56060 595 ft 3 kts 282°
2026-05-07 21:58 48.11687 16.56013 594 ft 5 kts 229°
2026-05-07 21:59 48.11647 16.56000 594 ft 6 kts 165°
2026-05-07 21:59 48.11615 16.56040 595 ft 6 kts 127°
2026-05-07 21:59 48.11589 16.56107 596 ft 8 kts 118°
2026-05-07 21:59 48.11558 16.56200 596 ft 11 kts 114°
2026-05-07 22:00 48.11525 16.56314 598 ft 12 kts 117°
2026-05-07 22:00 48.11482 16.56437 599 ft 13 kts 118°
2026-05-07 22:00 48.11441 16.56562 601 ft 12 kts 114°
2026-05-07 22:00 48.11405 16.56679 602 ft 12 kts 116°
2026-05-07 22:01 48.11367 16.56791 603 ft 11 kts 117°
2026-05-07 22:01 48.11330 16.56898 604 ft 11 kts 118°
2026-05-07 22:01 48.11297 16.57005 606 ft 11 kts 115°
2026-05-07 22:01 48.11264 16.57109 606 ft 11 kts 115°
2026-05-07 22:02 48.11231 16.57213 607 ft 11 kts 117°
2026-05-07 22:02 48.11195 16.57316 608 ft 11 kts 118°
2026-05-07 22:02 48.11159 16.57424 608 ft 11 kts 116°
2026-05-07 22:02 48.11113 16.57516 608 ft 11 kts 158°
2026-05-07 22:03 48.11069 16.57515 609 ft 0 kts 199°
2026-05-07 22:03 48.11066 16.57513 609 ft 2 kts 199°
2026-05-07 22:03 48.11008 16.57475 610 ft 14 kts 206°
2026-05-07 22:03 48.10994 16.57298 610 ft 30 kts 299°
2026-05-07 22:04 48.11192 16.56672 605 ft 102 kts 295°
2026-05-07 22:04 48.11604 16.55406 593 ft 162 kts 294°
2026-05-07 22:04 48.12156 16.53861 1133 ft 170 kts 295°
2026-05-07 22:04 48.12458 16.52236 1930 ft 166 kts 268°
2026-05-07 22:05 48.11941 16.50708 2488 ft 181 kts 223°
2026-05-07 22:05 48.10763 16.49792 2915 ft 200 kts 210°
2026-05-07 22:05 48.09484 16.48792 3335 ft 216 kts 214°
2026-05-07 22:05 48.08150 16.47578 3681 ft 238 kts 219°
2026-05-07 22:06 48.06796 16.46031 4161 ft 254 kts 224°
2026-05-07 22:06 48.05422 16.44260 4786 ft 266 kts 224°
2026-05-07 22:06 48.04027 16.42441 5576 ft 270 kts 224°
2026-05-07 22:06 48.02615 16.40597 6374 ft 274 kts 224°
2026-05-07 22:07 48.01194 16.38743 7130 ft 278 kts 223°
2026-05-07 22:07 47.99731 16.36834 7893 ft 283 kts 223°
2026-05-07 22:07 47.98246 16.34899 8657 ft 286 kts 223°
2026-05-07 22:07 47.96773 16.32874 9405 ft 289 kts 229°
2026-05-07 22:08 47.95644 16.30440 10144 ft 290 kts 244°
2026-05-07 22:08 47.94869 16.27652 10733 ft 298 kts 251°
2026-05-07 22:08 47.94159 16.24692 11073 ft 314 kts 251°
2026-05-07 22:08 47.93345 16.21589 11501 ft 328 kts 243°
2026-05-07 22:09 47.91827 16.19049 12145 ft 334 kts 219°
2026-05-07 22:09 47.89910 16.17140 12909 ft 335 kts 214°
2026-05-07 22:09 47.87935 16.15315 13613 ft 337 kts 214°
2026-05-07 22:09 47.85949 16.13431 14306 ft 339 kts 215°
2026-05-07 22:10 47.84006 16.11526 14938 ft 341 kts 216°
2026-05-07 22:10 47.82036 16.09550 15574 ft 344 kts 216°
2026-05-07 22:10 47.80038 16.07522 16214 ft 346 kts 216°
2026-05-07 22:10 47.78080 16.05517 16828 ft 347 kts 216°
2026-05-07 22:11 47.76092 16.03477 17402 ft 350 kts 216°
2026-05-07 22:11 47.74090 16.01421 17971 ft 353 kts 216°
2026-05-07 22:11 47.72056 15.99331 18547 ft 355 kts 216°
2026-05-07 22:11 47.70045 15.97264 19084 ft 358 kts 216°
2026-05-07 22:12 47.67977 15.95142 19631 ft 361 kts 216°
2026-05-07 22:12 47.65929 15.93041 20179 ft 363 kts 216°
2026-05-07 22:12 47.63848 15.90907 20718 ft 365 kts 216°
2026-05-07 22:12 47.61740 15.88746 21255 ft 368 kts 216°
2026-05-07 22:13 47.59643 15.86600 21774 ft 370 kts 216°
2026-05-07 22:13 47.57547 15.84455 22259 ft 373 kts 216°
2026-05-07 22:13 47.55400 15.82259 22750 ft 376 kts 216°
2026-05-07 22:13 47.53258 15.80073 23239 ft 378 kts 216°
2026-05-07 22:14 47.51093 15.77864 23720 ft 381 kts 216°
2026-05-07 22:14 47.48883 15.75648 24173 ft 384 kts 214°
2026-05-07 22:14 47.46562 15.73671 24611 ft 387 kts 210°
2026-05-07 22:14 47.44142 15.71983 25058 ft 390 kts 205°
2026-05-07 22:15 47.41627 15.70530 25490 ft 393 kts 204°
2026-05-07 22:15 47.39056 15.69093 25916 ft 395 kts 204°
2026-05-07 22:15 47.36476 15.67658 26317 ft 397 kts 204°
2026-05-07 22:15 47.33901 15.66226 26694 ft 399 kts 204°
2026-05-07 22:16 47.31312 15.64786 27077 ft 400 kts 204°
2026-05-07 22:16 47.28675 15.63320 27463 ft 402 kts 205°
2026-05-07 22:16 47.26078 15.61874 27717 ft 407 kts 205°
2026-05-07 22:16 47.23411 15.60389 27871 ft 413 kts 205°
2026-05-07 22:17 47.20722 15.58893 28171 ft 415 kts 205°
2026-05-07 22:17 47.18025 15.57401 28625 ft 413 kts 205°
2026-05-07 22:17 47.15326 15.55906 29157 ft 410 kts 206°
2026-05-07 22:17 47.12693 15.54450 29611 ft 408 kts 206°
2026-05-07 22:18 47.10025 15.52975 30063 ft 406 kts 206°
2026-05-07 22:18 47.04773 15.50070 30801 ft 404 kts 207°
2026-05-07 22:18 47.02169 15.48629 31106 ft 405 kts 207°
2026-05-07 22:19 46.99522 15.47151 31382 ft 406 kts 207°
2026-05-07 22:19 46.96933 15.45528 31639 ft 405 kts 211°
2026-05-07 22:19 46.94407 15.43703 31932 ft 403 kts 213°
2026-05-07 22:19 46.91968 15.41700 32055 ft 404 kts 216°
2026-05-07 22:20 46.89607 15.39552 32061 ft 403 kts 217°
2026-05-07 22:20 46.84845 15.35208 32061 ft 402 kts 217°
2026-05-07 22:21 46.80102 15.30884 32065 ft 402 kts 217°
2026-05-07 22:21 46.75335 15.26547 32069 ft 402 kts 217°
2026-05-07 22:22 46.70604 15.22246 32071 ft 402 kts 217°
2026-05-07 22:22 46.65866 15.17946 32063 ft 402 kts 217°
2026-05-07 22:23 46.61113 15.13644 32061 ft 401 kts 217°
2026-05-07 22:23 46.56382 15.09371 32062 ft 401 kts 217°
2026-05-07 22:24 46.51673 15.05127 32062 ft 400 kts 217°
2026-05-07 22:24 46.46937 15.00867 32063 ft 400 kts 217°
2026-05-07 22:25 46.42194 14.96610 32063 ft 400 kts 217°
2026-05-07 22:25 46.37442 14.92350 32065 ft 400 kts 218°
2026-05-07 22:26 46.32751 14.88158 32063 ft 400 kts 218°
2026-05-07 22:26 46.28015 14.83933 32064 ft 400 kts 218°
2026-05-07 22:27 46.23271 14.79707 32064 ft 400 kts 218°
2026-05-07 22:27 46.18558 14.75517 32059 ft 399 kts 217°
2026-05-07 22:28 46.13829 14.71327 32056 ft 399 kts 218°
2026-05-07 22:28 46.09124 14.67161 32054 ft 398 kts 218°
2026-05-07 22:29 46.04377 14.62969 32056 ft 398 kts 218°
2026-05-07 22:29 45.99662 14.58814 32058 ft 399 kts 218°
2026-05-07 22:30 45.94937 14.54656 32057 ft 398 kts 218°
2026-05-07 22:30 45.90228 14.50524 32060 ft 398 kts 218°
2026-05-07 22:31 45.85508 14.46387 32054 ft 398 kts 218°
2026-05-07 22:31 45.80798 14.42269 32056 ft 398 kts 218°
2026-05-07 22:32 45.76097 14.38165 32053 ft 397 kts 218°
2026-05-07 22:32 45.71364 14.34045 32056 ft 397 kts 217°
2026-05-07 22:33 45.66653 14.29949 32053 ft 398 kts 217°
2026-05-07 22:33 45.61934 14.25851 32050 ft 398 kts 217°
2026-05-07 22:34 45.57184 14.21736 32049 ft 398 kts 217°
2026-05-07 22:34 45.52440 14.17637 32048 ft 398 kts 217°
2026-05-07 22:35 45.47663 14.13665 32048 ft 400 kts 214°
2026-05-07 22:35 45.42630 14.10277 32048 ft 402 kts 211°
2026-05-07 22:36 45.37561 14.07002 32048 ft 402 kts 211°
2026-05-07 22:36 45.32446 14.03705 32046 ft 402 kts 211°
2026-05-07 22:37 45.27345 14.00428 32043 ft 403 kts 211°
2026-05-07 22:37 45.22240 13.97155 32045 ft 403 kts 211°
2026-05-07 22:38 45.17168 13.93914 32043 ft 403 kts 211°
2026-05-07 22:38 45.12027 13.90629 32043 ft 403 kts 211°
2026-05-07 22:39 45.06931 13.87384 32040 ft 402 kts 211°
2026-05-07 22:39 45.01845 13.84151 32040 ft 402 kts 211°
2026-05-07 22:40 44.96767 13.80928 32039 ft 402 kts 211°
2026-05-07 22:40 44.91672 13.77700 32033 ft 402 kts 211°
2026-05-07 22:41 44.86577 13.74479 32031 ft 402 kts 211°
2026-05-07 22:41 44.81463 13.71252 32029 ft 402 kts 211°
2026-05-07 22:42 44.76358 13.68038 32024 ft 403 kts 211°
2026-05-07 22:42 44.71218 13.64808 32022 ft 403 kts 211°
2026-05-07 22:43 44.66114 13.61604 32020 ft 402 kts 211°
2026-05-07 22:43 44.61017 13.58413 32016 ft 402 kts 211°
2026-05-07 22:44 44.55946 13.55246 32019 ft 402 kts 211°
2026-05-07 22:44 44.50847 13.52061 32013 ft 402 kts 211°
2026-05-07 22:45 44.45718 13.48867 32011 ft 402 kts 211°
2026-05-07 22:45 44.40682 13.45583 32009 ft 399 kts 214°
2026-05-07 22:46 44.35836 13.41910 32007 ft 398 kts 214°
2026-05-07 22:46 44.30953 13.38212 32007 ft 399 kts 215°
2026-05-07 22:47 44.26111 13.34542 32005 ft 399 kts 214°
2026-05-07 22:47 44.21200 13.30826 31998 ft 400 kts 214°
2026-05-07 22:48 44.16320 13.27138 31990 ft 399 kts 214°
2026-05-07 22:48 44.11441 13.23456 31990 ft 399 kts 213°
2026-05-07 22:49 44.06583 13.19799 31987 ft 400 kts 213°
2026-05-07 22:49 44.01701 13.16130 31982 ft 400 kts 213°
2026-05-07 22:50 43.96818 13.12467 31985 ft 399 kts 213°
2026-05-07 22:50 43.91947 13.08819 31979 ft 400 kts 213°
2026-05-07 22:51 43.87040 13.05152 31982 ft 400 kts 213°
2026-05-07 22:51 43.82133 13.01490 31977 ft 400 kts 213°
2026-05-07 22:52 43.77233 12.97841 31980 ft 400 kts 213°
2026-05-07 22:52 43.72351 12.94212 31980 ft 400 kts 213°
2026-05-07 22:53 43.67435 12.90565 31982 ft 400 kts 213°
2026-05-07 22:53 43.62503 12.86913 31988 ft 401 kts 213°
2026-05-07 22:54 43.57623 12.83303 31984 ft 401 kts 212°
2026-05-07 22:54 43.52694 12.79664 31752 ft 401 kts 212°
2026-05-07 22:54 43.50253 12.77866 31472 ft 399 kts 212°
2026-05-07 22:55 43.47826 12.76081 31191 ft 397 kts 212°
2026-05-07 22:55 43.45393 12.74292 30915 ft 395 kts 212°
2026-05-07 22:55 43.42994 12.72519 30638 ft 395 kts 213°
2026-05-07 22:55 43.40618 12.70593 30362 ft 394 kts 216°
2026-05-07 22:56 43.38285 12.68681 30084 ft 397 kts 212°
2026-05-07 22:56 43.35753 12.67043 29821 ft 401 kts 208°
2026-05-07 22:56 43.33184 12.65520 29542 ft 402 kts 207°
2026-05-07 22:56 43.30616 12.64008 29064 ft 403 kts 207°
2026-05-07 22:57 43.28012 12.62462 28523 ft 404 kts 207°
2026-05-07 22:57 43.25440 12.60924 27854 ft 404 kts 207°
2026-05-07 22:57 43.22857 12.59370 27135 ft 404 kts 207°
2026-05-07 22:57 43.20290 12.57823 26395 ft 403 kts 207°
2026-05-07 22:58 43.17738 12.56281 25657 ft 403 kts 207°
2026-05-07 22:58 43.15175 12.54731 24913 ft 403 kts 207°
2026-05-07 22:58 43.12652 12.53206 24190 ft 402 kts 206°
2026-05-07 22:58 43.10114 12.51673 23461 ft 402 kts 206°
2026-05-07 22:59 43.07560 12.50131 22741 ft 401 kts 206°
2026-05-07 22:59 43.05007 12.48591 22010 ft 401 kts 206°
2026-05-07 22:59 43.02461 12.47055 21298 ft 399 kts 206°
2026-05-07 22:59 42.99930 12.45532 20680 ft 396 kts 206°
2026-05-07 23:00 42.97415 12.44019 20102 ft 391 kts 206°
2026-05-07 23:00 42.94933 12.42527 19533 ft 387 kts 206°
2026-05-07 23:00 42.92476 12.41050 18960 ft 384 kts 206°
2026-05-07 23:00 42.90057 12.39598 18412 ft 380 kts 205°
2026-05-07 23:01 42.87630 12.38142 17861 ft 377 kts 205°
2026-05-07 23:01 42.85259 12.36720 17332 ft 374 kts 205°
2026-05-07 23:01 42.82875 12.35291 16803 ft 371 kts 205°
2026-05-07 23:01 42.80524 12.33885 16295 ft 368 kts 204°
2026-05-07 23:02 42.78202 12.32497 15799 ft 365 kts 204°
2026-05-07 23:02 42.75886 12.31113 15292 ft 362 kts 204°
2026-05-07 23:02 42.73572 12.29731 14777 ft 360 kts 204°
2026-05-07 23:02 42.71289 12.28369 14269 ft 357 kts 204°
2026-05-07 23:03 42.69021 12.27017 13761 ft 355 kts 203°
2026-05-07 23:03 42.66769 12.25676 13257 ft 352 kts 203°
2026-05-07 23:03 42.64539 12.24349 12754 ft 350 kts 203°
2026-05-07 23:03 42.62318 12.23030 12269 ft 346 kts 203°
2026-05-07 23:04 42.60131 12.21731 11779 ft 344 kts 203°
2026-05-07 23:04 42.57940 12.20430 11291 ft 340 kts 203°
2026-05-07 23:04 42.55748 12.19438 10833 ft 335 kts 188°
2026-05-07 23:04 42.53448 12.19308 10495 ft 326 kts 179°
2026-05-07 23:05 42.51172 12.19396 10224 ft 316 kts 178°
2026-05-07 23:05 42.49021 12.19477 10030 ft 305 kts 179°
2026-05-07 23:05 42.46938 12.19525 9867 ft 293 kts 179°
2026-05-07 23:05 42.44926 12.19544 9437 ft 285 kts 180°
2026-05-07 23:06 42.42994 12.19543 9048 ft 271 kts 180°
2026-05-07 23:06 42.41147 12.19532 8694 ft 258 kts 180°
2026-05-07 23:06 42.39411 12.19515 8350 ft 246 kts 180°
2026-05-07 23:06 42.37738 12.19497 8019 ft 235 kts 180°
2026-05-07 23:07 42.36126 12.19478 7811 ft 232 kts 180°
2026-05-07 23:07 42.34510 12.19459 7469 ft 232 kts 180°
2026-05-07 23:07 42.32891 12.19438 7124 ft 230 kts 179°
2026-05-07 23:07 42.31316 12.19417 6818 ft 229 kts 179°
2026-05-07 23:08 42.29706 12.19396 6508 ft 228 kts 179°
2026-05-07 23:08 42.28136 12.19376 6208 ft 228 kts 179°
2026-05-07 23:08 42.26537 12.19355 5903 ft 228 kts 179°
2026-05-07 23:08 42.24957 12.19334 5597 ft 228 kts 179°
2026-05-07 23:09 42.23382 12.19313 5289 ft 223 kts 179°
2026-05-07 23:09 42.21856 12.19291 4995 ft 217 kts 179°
2026-05-07 23:09 42.20363 12.19272 4739 ft 216 kts 179°
2026-05-07 23:09 42.18850 12.19254 4702 ft 217 kts 179°
2026-05-07 23:10 42.17337 12.19236 4654 ft 218 kts 179°
2026-05-07 23:10 42.15821 12.19211 4594 ft 218 kts 180°
2026-05-07 23:10 42.14294 12.19004 4480 ft 220 kts 188°
2026-05-07 23:10 42.12801 12.18600 4170 ft 218 kts 191°
2026-05-07 23:11 42.11333 12.18158 3873 ft 218 kts 191°
2026-05-07 23:11 42.09845 12.17703 3588 ft 217 kts 191°
2026-05-07 23:11 42.08385 12.17297 3309 ft 216 kts 186°
2026-05-07 23:11 42.06869 12.17184 3025 ft 215 kts 176°
2026-05-07 23:12 42.05419 12.17459 2941 ft 214 kts 166°
2026-05-07 23:12 42.03976 12.17990 2966 ft 214 kts 161°
2026-05-07 23:12 42.02557 12.18602 2727 ft 214 kts 160°
2026-05-07 23:12 42.01153 12.19215 2510 ft 212 kts 160°
2026-05-07 23:13 41.99741 12.19820 2504 ft 213 kts 160°
2026-05-07 23:13 41.98314 12.20420 2499 ft 213 kts 160°
2026-05-07 23:13 41.96902 12.21008 2469 ft 211 kts 160°
2026-05-07 23:13 41.95547 12.21571 2294 ft 196 kts 160°
2026-05-07 23:14 41.94273 12.22101 2039 ft 189 kts 160°
2026-05-07 23:14 41.93048 12.22610 1756 ft 175 kts 160°
2026-05-07 23:14 41.91915 12.23082 1511 ft 168 kts 160°
2026-05-07 23:14 41.90823 12.23540 1278 ft 155 kts 160°
2026-05-07 23:15 41.89840 12.23953 1070 ft 145 kts 160°
2026-05-07 23:15 41.88873 12.24359 899 ft 144 kts 161°
2026-05-07 23:15 41.87913 12.24762 720 ft 144 kts 161°
2026-05-07 23:15 41.86966 12.25158 535 ft 143 kts 161°
2026-05-07 23:16 41.86013 12.25557 342 ft 143 kts 161°
2026-05-07 23:16 41.85067 12.25954 151 ft 142 kts 162°
2026-05-07 23:16 41.84138 12.26341 16 ft 137 kts 161°
2026-05-07 23:16 41.83351 12.26668 10 ft 92 kts 161°
2026-05-07 23:17 41.82899 12.26859 9 ft 42 kts 162°
2026-05-07 23:17 41.82650 12.26961 9 ft 35 kts 163°
2026-05-07 23:17 41.82425 12.27049 9 ft 32 kts 162°
2026-05-07 23:17 41.82212 12.27130 10 ft 30 kts 171°
2026-05-07 23:18 41.82008 12.27119 10 ft 29 kts 190°
2026-05-07 23:18 41.81818 12.27044 10 ft 27 kts 194°
2026-05-07 23:18 41.81633 12.27067 11 ft 26 kts 163°
2026-05-07 23:18 41.81464 12.27135 11 ft 25 kts 163°
2026-05-07 23:19 41.81299 12.27205 11 ft 24 kts 160°
2026-05-07 23:19 41.81142 12.27272 12 ft 23 kts 163°
2026-05-07 23:19 41.80986 12.27333 12 ft 22 kts 164°
2026-05-07 23:19 41.80831 12.27333 12 ft 22 kts 190°
2026-05-07 23:20 41.80688 12.27272 12 ft 21 kts 221°
2026-05-07 23:20 41.80621 12.27101 13 ft 21 kts 251°
2026-05-07 23:20 41.80572 12.26917 13 ft 20 kts 251°
2026-05-07 23:20 41.80528 12.26740 13 ft 20 kts 252°
2026-05-07 23:21 41.80476 12.26566 14 ft 19 kts 248°
2026-05-07 23:21 41.80417 12.26406 15 ft 19 kts 222°
2026-05-07 23:21 41.80292 12.26395 15 ft 19 kts 166°
2026-05-07 23:21 41.80209 12.26400 15 ft 8 kts 199°
2026-05-07 23:22 41.80150 12.26368 15 ft 9 kts 206°
2026-05-07 23:22 41.80121 12.26290 15 ft 10 kts 281°
2026-05-07 23:22 41.80139 12.26202 15 ft 3 kts 261°
2026-05-07 23:22 41.80120 12.26174 15 ft 4 kts 212°
2026-05-07 23:23 41.80092 12.26154 15 ft 2 kts 206°
2026-05-07 23:23 41.80091 12.26153 15 ft 0 kts 206°
2026-05-07 23:23 41.80090 12.26153 15 ft 0 kts 206°